Kezdőlap
METAR-TAF:

METAR-TAF

Repülőterek :

Austin, Minnesota, Amerikai Egyesült Államok

földrajzi szélesség: 43-40N, földrajzi hosszúság: 092-56W, magasság: 375 m

Jelenlegi meteorológiai megfigyelések

A jelentés 20 perccel ezelõtt készült, 13:15 UTC
Szélcsend
Hőmérséklet 23°C
Páratartalom 89%
Légköri nyomás 1019 hPa
Látótávolság: 16.1 km
Borult 600 lábon

METAR: KAUM 281315Z AUTO 00000KT 10SM OVC006 23/21 A3008 RMK AO2 LTG DSNT W AND NW

Idő: 08:35 (13:35 UTC)


TAF: hiányzik

Meteorológiai megfigyelések és előrejelzések több, mint 4000 repülőtéren (METAR és TAF jelentéseket).

A térképen piros és sárga pontok jelzik az elérhető meteorológiai állomásokat.

Mozgassa az egeret a pont fölött, hogy megjelenjen az állomás neve.

Azután kattintson az időjárási megfigyelések és előrejelzések megtekintéséhez.

A térkép megváltoztatása: kattintson a fekete keresztel jelölt zöld gombra ráközelítéshez, a vonallal jelölt zöld gombra távolításhoz, vagy a zöld nyilakra a szomszédos térképek eléréséhez.


METAR-TAF: